User: anonymous   Login
Location: Unspecified
(0.0000°N, 0.0000°E)
Time: 07:03:59
(UTC+00:00)
Language:

LAPAN A3 - Orbit

View from above orbital plane
View from above orbital plane
View from above satellite
View from above satellite

Ground track
Ground track

The orbit data is extracted from the following two-line orbital elements,

1 41603U 16040E   18048.88893567  .00000242  00000-0  14596-4 0  9997
2 41603  97.4282 112.4777 0012217 302.7487 173.3023 15.19511823 91961
Epoch (UTC): 17 February 2018 21:20:04
Eccentricity: 0.0012217
inclination: 97.4282°
perigee height: 499 km
apogee height: 516 km
right ascension of ascending node: 112.4777°
argument of perigee: 302.7487°
revolutions per day: 15.19511823
mean anomaly at epoch: 173.3023°
orbit number at epoch: 9196

The dashed part of the orbit path shows where the satellite is in the earth's shadow,  

DLR